TimeEST,TemperatureF,Dew PointF,Humidity,Sea Level PressureIn,VisibilityMPH,Wind Direction,Wind SpeedMPH,Gust SpeedMPH,PrecipitationIn,Events,Conditions,WindDirDegrees,DateUTC
12:52 AM,54.0,51.1,90,30.05,7.0,SSW,9.2,-,N/A,,Mostly Cloudy,210,2013-01-29 05:52:00
1:27 AM,53.6,51.8,94,30.04,7.0,SSW,8.1,-,N/A,,Partly Cloudy,210,2013-01-29 06:27:00
1:52 AM,53.1,50.0,89,30.04,8.0,SSW,9.2,-,N/A,,Clear,210,2013-01-29 06:52:00
2:52 AM,54.0,51.1,90,30.03,8.0,SSW,10.4,-,N/A,,Mostly Cloudy,210,2013-01-29 07:52:00
3:52 AM,54.0,51.1,90,30.01,9.0,SSW,11.5,-,N/A,,Partly Cloudy,200,2013-01-29 08:52:00
4:52 AM,54.0,50.0,86,29.99,9.0,SSW,9.2,18.4,N/A,,Partly Cloudy,210,2013-01-29 09:52:00
5:52 AM,55.0,51.1,86,30.00,10.0,SW,9.2,-,N/A,,Overcast,220,2013-01-29 10:52:00
6:52 AM,55.0,51.1,86,30.01,9.0,SSW,11.5,-,N/A,,Overcast,200,2013-01-29 11:52:00
7:02 AM,53.6,51.8,94,30.01,9.0,SSW,12.7,18.4,N/A,,Overcast,200,2013-01-29 12:02:00
7:37 AM,55.4,51.8,88,30.00,9.0,SSW,12.7,21.9,N/A,,Overcast,200,2013-01-29 12:37:00
7:52 AM,55.0,51.1,86,29.99,8.0,SSW,12.7,21.9,N/A,,Overcast,200,2013-01-29 12:52:00
8:02 AM,55.4,51.8,88,30.00,8.0,South,12.7,20.7,N/A,,Overcast,190,2013-01-29 13:02:00
8:44 AM,55.4,51.8,88,29.99,8.0,SSW,13.8,20.7,N/A,,Mostly Cloudy,200,2013-01-29 13:44:00
8:52 AM,55.9,52.0,87,29.99,8.0,SSW,11.5,19.6,N/A,,Mostly Cloudy,200,2013-01-29 13:52:00
9:29 AM,57.2,51.8,82,29.99,9.0,SSW,13.8,-,N/A,,Overcast,200,2013-01-29 14:29:00
9:52 AM,57.0,53.1,87,29.99,9.0,SSW,11.5,21.9,N/A,,Overcast,200,2013-01-29 14:52:00
10:23 AM,59.0,53.6,82,29.98,9.0,SSW,15.0,21.9,N/A,,Scattered Clouds,200,2013-01-29 15:23:00
10:52 AM,61.0,54.0,78,29.96,10.0,SSW,16.1,20.7,N/A,,Mostly Cloudy,210,2013-01-29 15:52:00
11:12 AM,60.8,53.6,77,29.97,10.0,South,16.1,25.3,N/A,,Overcast,190,2013-01-29 16:12:00
11:52 AM,61.0,54.0,78,29.94,9.0,SSW,15.0,23.0,N/A,,Overcast,200,2013-01-29 16:52:00
12:52 PM,62.1,54.0,75,29.91,9.0,SSW,16.1,26.5,N/A,,Overcast,200,2013-01-29 17:52:00
1:52 PM,62.1,54.0,75,29.89,10.0,SSW,19.6,28.8,N/A,,Overcast,200,2013-01-29 18:52:00
2:52 PM,63.0,55.0,75,29.86,10.0,South,23.0,28.8,N/A,,Overcast,180,2013-01-29 19:52:00
3:52 PM,63.0,55.0,75,29.83,9.0,South,18.4,25.3,N/A,,Overcast,190,2013-01-29 20:52:00
4:45 PM,62.6,55.4,77,29.83,10.0,South,17.3,23.0,N/A,,Overcast,190,2013-01-29 21:45:00
4:52 PM,63.0,55.9,78,29.81,10.0,South,12.7,-,N/A,,Overcast,180,2013-01-29 21:52:00
5:52 PM,62.1,55.9,80,29.79,10.0,South,13.8,-,N/A,,Overcast,180,2013-01-29 22:52:00
6:52 PM,62.1,55.9,80,29.77,10.0,South,10.4,-,N/A,,Overcast,170,2013-01-29 23:52:00
7:52 PM,63.0,55.9,78,29.74,10.0,South,15.0,-,N/A,,Overcast,170,2013-01-30 00:52:00
8:52 PM,62.1,55.9,80,29.71,10.0,South,18.4,26.5,N/A,,Mostly Cloudy,170,2013-01-30 01:52:00
9:52 PM,63.0,57.0,81,29.69,10.0,South,19.6,29.9,N/A,,Scattered Clouds,190,2013-01-30 02:52:00
10:52 PM,63.0,57.0,81,29.63,10.0,South,18.4,32.2,N/A,,Scattered Clouds,180,2013-01-30 03:52:00
11:52 PM,63.0,57.0,81,29.59,10.0,South,26.5,36.8,N/A,,Scattered Clouds,180,2013-01-30 04:52:00